Location: Newark
(40.7636°N, 73.9728°W)
Time: 21:04:56
(UTC+00:00)

OTV 5 (USA 277) - Visible Passes

Search period start: 19 October 2019 00:00
Search period end: 29 October 2019 00:00
Orbit: 310 x 324 km, 54.5° (Epoch: 17 October)

Date Brightness Start Highest point End Pass type
(mag) Time Alt. Az. Time Alt. Az. Time Alt. Az.
19 Oct ? 09:23:10 24° NNE 09:23:10 24° NNE 09:25:30 10° E visible
20 Oct ? 09:37:48 62° NE 09:37:49 63° NE 09:40:32 10° ESE visible
21 Oct ? 09:52:34 38° SSW 09:52:34 38° SSW 09:54:54 10° SSE visible
22 Oct ? 10:07:29 13° SSW 10:07:29 13° SSW 10:08:12 10° SSW visible
27 Oct ? 22:54:40 10° S 22:56:30 16° SE 22:56:48 16° ESE visible
28 Oct ? 23:08:15 10° SSW 23:10:52 48° SE 23:11:24 40° E visible
